Location: Niles Junction
(37.5763°N, 121.9714°W)
Time: 04:33:06
(UTC+00:00)

PSLV R/B - Pass Details

Date: 29 October 2020
Orbit: 567 x 599 km, 98.2° (Epoch: 23 November)

Event Time Altitude Azimuth Distance (km) Brightness Sun altitude
Rises 13:55:09 0° 181° (S) 2,820 7.6 -7.6°
Reaches altitude 10° 13:57:23 10° 188° (S) 1,926 6.6 -7.2°
Maximum altitude 14:01:22 43° 261° (W) 846 4.4 -6.4°
Drops below altitude 10° 14:05:24 10° 333° (NNW) 1,945 6.2 -5.6°
Sets 14:07:40 0° 340° (NNW) 2,851 7.1 -5.2°
